TimeEDT,TemperatureF,Dew PointF,Humidity,Sea Level PressureIn,VisibilityMPH,Wind Direction,Wind SpeedMPH,Gust SpeedMPH,PrecipitationIn,Events,Conditions,WindDirDegrees,DateUTC
12:54 AM,32.0,14.0,48,30.22,10.0,Calm,Calm,-,N/A,,Overcast,0,2013-04-12 04:54:00
1:54 AM,32.0,14.0,48,30.21,10.0,Calm,Calm,-,N/A,,Overcast,0,2013-04-12 05:54:00
2:54 AM,32.0,14.0,48,30.19,10.0,NNE,3.5,-,N/A,,Overcast,20,2013-04-12 06:54:00
3:54 AM,32.0,15.1,50,30.20,10.0,North,4.6,-,N/A,,Overcast,10,2013-04-12 07:54:00
4:54 AM,32.0,17.1,54,30.21,8.0,NNE,4.6,-,0.00,Snow,Light Snow,30,2013-04-12 08:54:00
5:05 AM,30.2,19.4,64,30.18,2.5,NNE,5.8,-,0.00,Snow,Light Snow,20,2013-04-12 09:05:00
5:24 AM,28.4,21.2,74,30.17,4.0,NNE,3.5,-,0.00,Snow,Light Snow,30,2013-04-12 09:24:00
5:54 AM,28.9,23.0,78,30.20,9.0,North,4.6,-,0.00,Snow,Light Snow,350,2013-04-12 09:54:00
6:10 AM,28.4,23.0,80,30.16,1.8,North,3.5,-,0.01,Snow,Light Snow,350,2013-04-12 10:10:00
6:17 AM,28.4,24.8,86,30.16,1.2,Calm,Calm,-,0.01,Snow,Light Snow,0,2013-04-12 10:17:00
6:27 AM,28.4,24.8,86,30.16,1.0,NNW,3.5,-,0.03,Snow,Light Snow,340,2013-04-12 10:27:00
6:37 AM,28.4,24.8,86,30.16,1.8,NNW,3.5,-,0.04,Snow,Light Snow,340,2013-04-12 10:37:00
6:42 AM,28.4,24.8,86,30.16,3.0,Calm,Calm,-,0.05,,Overcast,0,2013-04-12 10:42:00
6:54 AM,28.9,26.1,89,30.19,3.0,Calm,Calm,-,0.06,,Overcast,0,2013-04-12 10:54:00
7:39 AM,30.2,24.8,80,30.14,4.0,Calm,Calm,-,0.01,Rain,Light Freezing Rain,0,2013-04-12 11:39:00
7:46 AM,30.2,24.8,80,30.13,2.5,Calm,Calm,-,0.02,Rain,Light Freezing Rain,0,2013-04-12 11:46:00
7:54 AM,30.9,26.1,82,30.16,4.0,Calm,Calm,-,0.03,Rain,Light Freezing Rain,0,2013-04-12 11:54:00
7:58 AM,30.2,26.6,86,30.13,2.5,Calm,Calm,-,0.00,Rain,Light Freezing Rain,0,2013-04-12 11:58:00
8:06 AM,30.2,24.8,80,30.12,3.0,East,6.9,-,0.01,Rain,Light Freezing Rain,100,2013-04-12 12:06:00
8:15 AM,30.2,24.8,80,30.12,3.0,Variable,3.5,-,0.01,,Overcast,0,2013-04-12 12:15:00
8:24 AM,30.2,24.8,80,30.11,2.5,Variable,4.6,-,0.02,Snow,Light Snow,0,2013-04-12 12:24:00
8:52 AM,30.2,26.6,86,30.09,7.0,Calm,Calm,-,0.04,,Overcast,0,2013-04-12 12:52:00
8:54 AM,30.9,26.1,82,30.12,8.0,Calm,Calm,-,0.04,,Overcast,0,2013-04-12 12:54:00
9:28 AM,30.2,26.6,86,30.07,2.5,SE,5.8,-,0.01,,Overcast,140,2013-04-12 13:28:00
9:36 AM,30.2,26.6,86,30.06,3.0,Calm,Calm,-,0.01,Rain,Light Freezing Rain,0,2013-04-12 13:36:00
9:54 AM,32.0,28.0,85,30.09,4.0,Calm,Calm,-,0.01,Rain,Light Freezing Rain,0,2013-04-12 13:54:00
10:05 AM,32.0,26.6,80,30.05,5.0,Variable,4.6,-,0.00,,Haze,0,2013-04-12 14:05:00
10:38 AM,32.0,26.6,80,30.03,2.5,Variable,5.8,-,0.00,Rain,Light Freezing Rain,0,2013-04-12 14:38:00
10:54 AM,32.0,28.0,85,30.04,2.5,SSE,4.6,-,0.00,Rain,Light Freezing Rain,150,2013-04-12 14:54:00
11:05 AM,32.0,26.6,80,30.01,4.0,SE,9.2,-,0.01,Rain,Light Freezing Rain,140,2013-04-12 15:05:00
11:36 AM,32.0,26.6,80,30.00,10.0,South,6.9,-,0.02,,Overcast,170,2013-04-12 15:36:00
11:54 AM,32.0,26.1,79,30.04,5.0,SSE,9.2,-,0.03,Snow,Light Snow,160,2013-04-12 15:54:00
12:14 PM,32.0,26.6,80,29.98,2.0,SSE,4.6,-,0.03,,Overcast,160,2013-04-12 16:14:00
12:37 PM,30.2,28.4,93,29.96,1.0,SSE,6.9,-,0.08,,Mist,160,2013-04-12 16:37:00
12:51 PM,30.2,26.6,86,29.94,0.8,South,4.6,-,0.10,,Mist,170,2013-04-12 16:51:00
12:54 PM,30.9,28.0,89,29.97,0.8,Variable,3.5,-,0.11,,Mist,0,2013-04-12 16:54:00
1:07 PM,30.2,28.4,93,29.95,1.0,Variable,4.6,-,0.04,,Mist,0,2013-04-12 17:07:00
1:12 PM,30.2,28.4,93,29.95,1.2,Variable,3.5,-,0.06,,Overcast,0,2013-04-12 17:12:00
1:35 PM,30.2,28.4,93,29.94,1.5,Calm,Calm,-,0.12,,Overcast,0,2013-04-12 17:35:00
1:54 PM,30.9,28.9,92,29.97,1.8,Calm,Calm,-,0.15,,Overcast,0,2013-04-12 17:54:00
2:18 PM,30.2,28.4,93,29.94,1.2,Calm,Calm,-,0.04,Snow,Light Snow,0,2013-04-12 18:18:00
2:23 PM,30.2,28.4,93,29.93,1.0,Calm,Calm,-,0.04,Snow,Light Snow,0,2013-04-12 18:23:00
2:31 PM,30.2,28.4,93,29.93,0.8,South,4.6,-,0.05,Snow,Light Snow,170,2013-04-12 18:31:00
2:36 PM,30.2,28.4,93,29.93,0.8,SSE,3.5,-,0.06,Snow,Light Snow,160,2013-04-12 18:36:00
2:54 PM,32.0,28.0,85,29.96,1.0,Variable,6.9,-,0.07,Snow,Light Snow,0,2013-04-12 18:54:00
2:59 PM,32.0,28.4,87,29.93,2.0,South,4.6,-,0.00,Snow,Light Snow,170,2013-04-12 18:59:00
3:07 PM,33.8,26.6,75,29.92,8.0,South,9.2,-,0.00,Snow,Light Snow,190,2013-04-12 19:07:00
3:24 PM,33.8,26.6,75,29.92,9.0,South,8.1,19.6,0.00,,Overcast,180,2013-04-12 19:24:00
3:40 PM,33.8,26.6,75,29.91,10.0,South,10.4,19.6,0.00,,Overcast,180,2013-04-12 19:40:00
3:54 PM,34.0,26.1,73,29.93,6.0,SSE,9.2,-,0.00,,Haze,160,2013-04-12 19:54:00
4:09 PM,33.8,26.6,75,29.90,9.0,South,9.2,17.3,0.00,Rain,Light Rain,180,2013-04-12 20:09:00
4:37 PM,33.8,26.6,75,29.88,8.0,SSE,4.6,-,0.00,Rain,Light Rain,160,2013-04-12 20:37:00
4:54 PM,34.0,26.1,73,29.91,9.0,South,8.1,21.9,0.00,,Overcast,180,2013-04-12 20:54:00
5:54 PM,34.0,27.0,75,29.89,10.0,Variable,3.5,-,0.00,,Overcast,0,2013-04-12 21:54:00
6:54 PM,34.0,27.0,75,29.88,8.0,South,5.8,-,0.00,Rain,Light Rain,190,2013-04-12 22:54:00
7:32 PM,33.8,28.4,81,29.84,5.0,SSW,3.5,-,0.03,Rain,Light Freezing Rain,200,2013-04-12 23:32:00
7:54 PM,33.1,28.9,85,29.87,5.0,Calm,Calm,-,0.05,Rain,Light Freezing Rain,0,2013-04-12 23:54:00
8:22 PM,33.8,30.2,87,29.85,9.0,Calm,Calm,-,0.00,Rain,Light Rain,0,2013-04-13 00:22:00
8:54 PM,33.1,30.0,89,29.88,10.0,Calm,Calm,-,0.01,,Overcast,0,2013-04-13 00:54:00
9:23 PM,33.8,30.2,87,29.85,7.0,Calm,Calm,-,0.01,Rain,Light Freezing Rain,0,2013-04-13 01:23:00
9:49 PM,33.8,30.2,87,29.84,6.0,Calm,Calm,-,0.02,Rain,Light Freezing Rain,0,2013-04-13 01:49:00
9:54 PM,33.1,30.0,89,29.88,6.0,South,3.5,-,0.03,Rain,Light Freezing Rain,170,2013-04-13 01:54:00
10:19 PM,33.8,30.2,87,29.85,8.0,South,3.5,-,0.00,Rain,Light Rain,190,2013-04-13 02:19:00
10:54 PM,33.1,30.0,89,29.87,6.0,Variable,4.6,-,0.01,,Overcast,0,2013-04-13 02:54:00
11:10 PM,33.8,30.2,87,29.85,3.0,Variable,5.8,-,0.01,Snow,Light Snow,0,2013-04-13 03:10:00
11:16 PM,33.8,30.2,87,29.84,2.5,Variable,4.6,-,0.02,Snow,Light Snow,0,2013-04-13 03:16:00
11:32 PM,33.8,30.2,87,29.84,6.0,SSW,6.9,-,0.02,Snow,Light Snow,210,2013-04-13 03:32:00
11:54 PM,33.1,28.9,85,29.87,10.0,Variable,4.6,-,0.02,,Overcast,0,2013-04-13 03:54:00